Regional Weather Roundup
Issued by NWS Sioux Falls, SD

Home | Current Version | Previous Version | Graphics & Text | Print | Product List | Glossary On
Versions: 1 2 3 4 5 6 7 8 9 10 11 12 13 14 15 16 17 18 19 20 21 22 23 24 25 26 27 28 29 30 31 32 33 34 35 36 37 38 39 40 41 42 43 44 45 46 47 48 49 50
000
ASUS43 KFSD 282110
RWRFSD

WEATHER ROUNDUP FOR SE SOUTH DAKOTA/SW MINNESOTA/NW IOWA
NATIONAL WEATHER SERVICE SIOUX FALLS SD
400 PM CDT THU MAY 28 2015

NOTE: "FAIR" INDICATES FEW OR NO CLOUDS BELOW 12,000 FEET WITH NO
SIGNIFICANT WEATHER AND OR OBSTRUCTIONS TO VISIBILITY.


SDZ038>040-050-052>070-282200-
SOUTHEAST SOUTH DAKOTA

CITY           SKY/WX    TMP DP  RH WIND       PRES   REMARKS
BROOKINGS      PTSUNNY   81  59  47 S21G28    29.91F
CHAMBERLAIN    PTSUNNY   81  59  47 S15G21    29.84F
HURON            N/A    N/A N/A N/A MISG      29.83F
MADISON        MOCLDY    79  59  50 S22       29.91F
MITCHELL       MOSUNNY   86  56  35 S13G24    29.85F
SIOUX FALLS    PTSUNNY   79  58  48 S15G29    29.91F
WINNER         FAIR      83  57  41 S17       29.85F
YANKTON        PTSUNNY   81  57  44 S21G32    29.89F
$$

MNZ071-072-080-081-089-090-097-098-282200-
SOUTHWEST MINNESOTA

CITY           SKY/WX    TMP DP  RH WIND       PRES   REMARKS
FAIRMONT       PTSUNNY   81  50  34 S21G30    29.99F
JACKSON        PTSUNNY   81  50  34 S16G25    30.00F
LUVERNE        MOSUNNY   82  54  36 S21G28    29.93F
MARSHALL       MOSUNNY   84  45  24 SW22G30   29.91F
MONTEVIDEO     PTSUNNY   84  48  28 SW18G25   29.90F
REDWOOD FALLS  MOSUNNY   84  49  29 S23G30    29.93F
TRACY          MOSUNNY   84  47  27 S17G28    29.94F
WINDOM         MOSUNNY   81  50  34 S17G23    29.98S
WORTHINGTON    PTSUNNY   81  50  34 S22G28    29.96F
$$

IAZ001>003-012>014-020>022-031-032-NEZ013-014-SDZ071-282200-
NORTHWEST IOWA

CITY           SKY/WX    TMP DP  RH WIND       PRES   REMARKS
CHEROKEE       CLOUDY    74  59  58 S14G22    29.98F
DENISON        LGT RAIN  68  68 100 SE5       30.00F
ESTHERVILLE    PTSUNNY   78  50  37 S21G32    29.99F
LE MARS        CLOUDY    73  61  64 S13G21    29.98S
ORANGE CITY    CLOUDY    73  57  56 S22       29.97F
SHELDON        PTSUNNY   79  61  53 S20G29    29.96S
SIOUX CITY     CLOUDY    70  59  68 S21G28    29.97F
SPENCER        PTSUNNY   79  58  48 S23G30    29.98F
STORM LAKE     CLOUDY    73  55  53 S23G30    30.01F
$$

ABBREVIATIONS USED IN REMARKS
   TC - TEMPERATURE IN CELSIUS
  WCI - WIND CHILL INDEX
   HX - HEAT INDEX
  VSB - VISIBILITY



USA.gov is the U.S. government's official web portal to all federal, state and local government web resources and services.